Terminal Aerodrome Forecast
Issued by NWS Omaha/Valley, NE

Home | Current Version | Previous Version | Graphics & Text | Print | Product List | Glossary On
Versions: 1 2 3 4 5 6 7 8 9 10 11 12 13 14 15 16 17 18 19 20 21 22 23 24 25 26 27 28 29 30 31 32 33 34 35 36 37 38 39 40 41 42 43 44 45 46 47 48 49 50
000
FTUS43 KOAX 272203 AAA
TAFOFK
TAF AMD
KOFK 272203Z 2722/2818 14014G23KT P6SM BKN030 BKN150
     FM280100 16012KT P6SM SCT060 BKN150
      TEMPO 2803/2806 5SM RA SCT040 BKN060
     FM280800 33011KT P6SM SCT008 BKN020=

USA.gov is the U.S. government's official web portal to all federal, state and local government web resources and services.